Location: Espelette
(43.3402°N, 1.4474°W)
Time: 21:39:07
(UTC+00:00)

Cosmos 44 - Pass Details

Date: 19 May 2025
Orbit: 588 x 763 km, 65.1° (Epoch: 18 June)

Event Time Altitude Azimuth Distance (km) Brightness Sun altitude
Rises 21:16:20 0° 328° (NNW) 2,909 8.3 -16.1°
Reaches altitude 10° 21:18:36 10° 332° (NNW) 2,023 7.0 -16.4°
Maximum altitude 21:23:08 64° 54° (NE) 730 3.3 -16.9°
Enters shadow 21:25:18 31° 125° (SE) 1,165 3.9 -17.2°
